TimeEDT,TemperatureF,Dew PointF,Humidity,Sea Level PressureIn,VisibilityMPH,Wind Direction,Wind SpeedMPH,Gust SpeedMPH,PrecipitationIn,Events,Conditions,WindDirDegrees,DateUTC
12:56 AM,55.9,54.9,96,30.09,10.0,East,4.6,-,N/A,,Clear,80,2013-08-12 04:56:00
1:56 AM,55.9,54.0,93,30.08,10.0,East,5.8,-,N/A,,Clear,90,2013-08-12 05:56:00
2:56 AM,55.9,54.0,93,30.07,10.0,East,5.8,-,N/A,,Mostly Cloudy,80,2013-08-12 06:56:00
3:56 AM,55.9,54.0,93,30.07,10.0,East,5.8,-,N/A,,Clear,100,2013-08-12 07:56:00
4:56 AM,55.9,54.0,93,30.06,10.0,East,3.5,-,N/A,,Clear,80,2013-08-12 08:56:00
5:56 AM,54.0,52.9,96,30.06,10.0,East,4.6,-,N/A,,Clear,90,2013-08-12 09:56:00
6:13 AM,55.4,53.6,94,30.07,10.0,East,5.8,-,N/A,,Clear,90,2013-08-12 10:13:00
6:56 AM,54.9,52.9,93,30.07,10.0,East,4.6,-,N/A,,Clear,90,2013-08-12 10:56:00
7:56 AM,59.0,54.9,86,30.08,10.0,East,3.5,-,N/A,,Clear,100,2013-08-12 11:56:00
8:56 AM,65.8,56.8,73,30.08,10.0,Calm,Calm,-,N/A,,Clear,0,2013-08-12 12:56:00
9:56 AM,70.0,54.9,59,30.07,10.0,Calm,Calm,-,N/A,,Clear,0,2013-08-12 13:56:00
10:56 AM,72.0,55.9,57,30.05,10.0,Calm,Calm,-,N/A,,Clear,0,2013-08-12 14:56:00
11:56 AM,73.9,55.9,53,30.05,10.0,Calm,Calm,-,N/A,,Scattered Clouds,0,2013-08-12 15:56:00
12:56 PM,75.9,57.9,54,30.03,10.0,WSW,8.1,-,N/A,,Scattered Clouds,240,2013-08-12 16:56:00
1:56 PM,77.0,55.9,48,30.01,10.0,Calm,Calm,-,N/A,,Scattered Clouds,0,2013-08-12 17:56:00
2:56 PM,77.0,57.9,52,30.01,10.0,South,3.5,-,N/A,,Scattered Clouds,190,2013-08-12 18:56:00
3:56 PM,77.0,59.0,54,29.99,10.0,SSW,4.6,-,N/A,,Scattered Clouds,200,2013-08-12 19:56:00
4:56 PM,74.8,61.0,62,29.97,10.0,South,3.5,-,N/A,,Mostly Cloudy,190,2013-08-12 20:56:00
5:56 PM,74.8,61.0,62,29.96,10.0,WSW,5.8,-,N/A,,Mostly Cloudy,240,2013-08-12 21:56:00
6:56 PM,72.9,61.0,66,29.95,10.0,WNW,4.6,-,N/A,,Mostly Cloudy,290,2013-08-12 22:56:00
7:56 PM,70.9,61.0,71,29.96,10.0,West,4.6,-,N/A,,Mostly Cloudy,270,2013-08-12 23:56:00
8:56 PM,63.9,61.0,90,29.94,10.0,Calm,Calm,-,N/A,,Scattered Clouds,0,2013-08-13 00:56:00
9:56 PM,61.9,61.0,97,29.95,10.0,Calm,Calm,-,N/A,,Scattered Clouds,0,2013-08-13 01:56:00
10:56 PM,64.9,59.9,84,29.94,10.0,SSE,3.5,-,N/A,,Overcast,160,2013-08-13 02:56:00
11:56 PM,65.8,61.0,84,29.92,10.0,SSE,3.5,-,N/A,,Overcast,160,2013-08-13 03:56:00